Temp_Advection
nan nan nan nan nan nan nan nan nan nan nan nan nan nan nan nan nan nan nan nan nan nan nan nan nan nan nan nan nan nan nan nan nan nan nan nan nan nan nan nan nan nan nan nan nan
nan -0 -0 -0 -0 -0 -0 -0 -0 -0 -0 -0 -0 -0 -0 -0 -0 -0 -0 -0 -0 0 0 0 -0 0 0 -0 0 -0 -0 -0 -0 -0 -0 -0 0 -0 0 0 -0 -0 -0 0 nan
nan -0 -0 -0 -0 -0 -0 -0 -0 -0 -0 -0 -0 -0 -0 -0 -0 -0 0 0 0 -0 0 0 0 0 0 0 0 0 -0 -0 -1 -0 0 0 -0 -0 0 -0 -2 -0 0 1 nan
nan -0 -0 -0 -0 0 -0 -0 -0 -0 -0 -0 -0 -0 -0 -0 -0 -0 0 0 0 0 -0 0 0 0 0 -0 0 0 -0 -1 -1 0 0 -0 -0 0 -0 -1 1 1 0 0 nan
nan 0 -0 -0 0 0 0 -0 -0 -0 -0 -0 -0 -0 -0 -0 -0 -0 0 0 0 0 0 -0 0 0 0 -0 -0 -0 -0 -0 -0 0 0 0 1 -0 -2 -0 1 0 0 0 nan
nan -0 -0 -0 0 0 -0 -0 -0 -0 -0 -0 -0 -0 0 -0 -0 0 0 0 0 0 0 0 0 0 0 0 -0 0 -0 -1 -1 0 1 0 -0 -0 -1 -0 0 0 0 0 nan
nan -0 -0 0 0 -0 -0 -0 -0 -0 -0 -0 -0 -0 -0 -0 -0 0 -0 0 0 -0 0 0 0 0 0 0 -0 0 0 -0 -0 -0 0 -0 0 -1 -2 0 -0 -1 -0 0 nan
nan 0 -0 0 -0 -0 -0 -0 -0 -0 -0 -0 -0 -0 -0 -0 -0 0 0 0 0 0 -0 0 0 0 0 -0 -0 -0 -0 0 -0 -0 -0 -0 0 -1 -1 -0 -0 -1 -0 -0 nan
nan 0 0 0 -0 -0 -0 -0 -0 -0 -0 -0 0 -0 -0 -0 -0 0 0 0 0 0 0 -0 0 0 0 -0 -0 -0 -0 -0 -1 -0 0 0 0 -0 -1 -0 -0 -0 -0 -0 nan
nan 0 0 -0 -0 -0 -0 -0 -0 -0 0 0 -0 -0 -0 -0 -0 0 0 0 0 0 -0 0 0 -0 -0 0 -0 -0 0 0 -0 -0 0 0 0 -1 -1 -0 0 0 0 -0 nan
nan -0 -0 -0 -0 -0 -0 -0 -0 0 -0 -0 -0 -0 -0 0 0 0 0 0 0 0 0 -0 -0 0 -0 -0 -0 -0 0 0 -0 -0 -0 0 -0 -1 -1 0 0 0 0 -0 nan
nan 0 -0 -0 -0 -0 -0 -0 0 0 -0 -0 0 0 -0 0 0 0 0 0 0 0 -0 -0 -0 -1 -0 -0 -0 0 0 0 -0 -0 -0 0 0 -0 0 0 0 0 -0 0 nan
nan 0 -0 -0 0 -0 -0 -0 0 0 -0 -0 0 0 0 -0 0 0 0 0 0 0 0 0 -1 0 -0 -0 0 0 0 0 0 -0 -0 -0 -0 0 0 0 0 -0 0 0 nan
nan 0 0 0 -0 -0 -0 0 0 0 -0 -1 -0 0 0 0 0 0 0 0 0 0 0 -0 -0 -0 -0 0 -0 0 0 0 0 -0 -0 -0 -0 -0 -0 -0 -0 0 0 -0 nan
nan -0 0 -0 -0 0 0 0 0 0 0 -0 0 0 0 0 -0 0 0 0 0 -0 -0 0 -0 -0 0 0 -0 0 -0 -0 0 -0 -0 0 -0 -0 0 0 0 -0 0 -0 nan
nan -0 -0 -0 -0 0 0 0 0 -0 -1 0 0 0 0 0 0 0 0 0 0 0 0 -0 -0 0 0 0 0 -0 -0 -0 -0 0 0 -0 -0 0 -0 0 0 0 0 0 nan
nan -0 -0 -0 0 0 0 0 -0 -0 -0 -0 -0 0 0 0 0 0 0 0 0 0 -0 -0 0 0 0 -0 -0 -0 -0 -0 0 0 -0 -0 -0 -1 -0 0 -0 -0 0 0 nan
nan 0 -0 0 0 0 0 -0 -0 -0 -0 -0 -0 -0 0 -0 0 -0 -0 0 -0 0 -0 0 0 0 0 0 -0 -0 -0 0 -0 0 0 -0 -0 -0 -0 1 0 -0 -0 -0 nan
nan 0 0 0 0 0 1 -0 -0 -0 -0 -0 -0 -0 -0 -0 -0 -0 0 -0 -0 -0 -0 -0 -0 -0 -0 -0 0 0 -0 -0 -0 -0 0 -0 -1 -0 -0 -0 0 0 0 0 nan
nan 0 0 0 0 0 -0 -0 -0 -1 0 -0 0 -0 -0 0 0 0 -0 -0 -0 -0 -0 -0 -0 0 0 -0 -0 0 0 -0 -0 -0 0 0 -0 -0 0 -0 0 0 0 0 nan
nan 0 0 0 1 1 0 -0 -1 -0 0 0 -0 -0 0 -0 0 -0 -0 0 -0 0 0 -0 0 -0 -0 0 0 -0 0 -0 -0 0 0 -0 -0 -0 1 0 0 0 0 0 nan
nan 0 0 0 0 0 -0 -1 -0 0 0 0 0 0 -0 -0 -0 -0 -0 0 0 -0 0 -0 -0 0 -0 0 0 -0 -0 -0 0 0 0 0 -1 -0 0 0 0 0 0 0 nan
nan 0 0 1 0 -0 -1 -1 -0 0 0 0 0 0 0 0 0 -0 0 0 0 -0 -0 0 -0 -0 -0 0 -0 -0 -0 -0 -0 -0 -0 -0 -0 -0 -0 0 0 0 0 -0 nan
nan 0 0 1 0 -0 -0 -0 0 0 0 0 0 0 0 0 0 0 0 -0 0 0 0 -0 -0 0 0 0 0 -0 0 0 -0 -0 -0 -1 -1 0 1 -0 -0 -0 -0 -0 nan
nan -0 -0 0 -0 -0 0 0 0 0 0 0 0 0 0 0 0 0 -0 0 -0 0 -0 0 -0 0 -0 0 0 0 0 0 0 -0 -0 -0 0 -0 0 -0 0 -0 -0 -0 nan
nan -0 0 -0 -0 0 0 -0 -0 -0 -0 -0 0 0 0 0 -0 -0 -0 -0 0 -0 0 -0 0 0 -0 0 0 0 0 0 -0 0 -0 -0 -0 -0 0 -0 -0 -0 -0 -0 nan
nan nan nan nan nan nan nan nan nan nan nan nan nan nan nan nan nan nan nan nan nan nan nan nan nan nan nan nan nan nan nan nan nan nan nan nan nan nan nan nan nan nan nan nan nan
Wind_Speed
10 9 8 8 7 6 7 10 8 6 5 3 3 1 1 2 5 5 4 0 2 2 1 2 2 2 3 1 1 1 4 2 5 4 4 8 3 6 6 8 9 9 13 12 10
10 10 9 9 8 7 8 10 8 6 5 4 3 2 3 2 6 9 4 2 2 2 1 3 4 4 4 3 3 4 4 6 6 3 4 12 6 9 4 11 13 18 20 17 17
11 10 9 9 7 8 10 10 8 7 6 5 4 4 3 2 4 8 8 4 2 2 3 1 2 4 4 4 6 6 6 6 14 19 13 6 10 7 4 7 21 18 21 20 20
10 9 9 9 6 10 11 11 8 7 6 5 5 5 4 3 3 2 9 5 3 2 2 3 3 2 2 3 3 2 12 14 15 17 8 6 10 6 13 27 26 22 22 22 24
10 11 10 8 7 11 13 10 8 7 6 5 5 5 5 3 6 3 7 4 3 3 3 3 4 1 2 4 5 5 5 10 16 18 16 16 18 9 27 25 18 15 13 21 24
11 10 9 8 9 12 13 11 8 6 5 6 6 5 5 4 3 3 7 5 5 5 5 5 4 5 7 4 2 4 11 17 20 30 17 7 8 2 20 15 17 13 15 18 23
9 8 8 8 11 13 12 11 8 7 6 6 6 6 8 11 6 7 8 9 7 7 8 7 6 5 3 5 6 7 7 8 5 4 1 1 4 7 16 16 19 25 27 22 22
8 7 8 9 12 12 11 10 8 7 6 7 7 7 7 8 10 11 12 10 7 7 7 6 7 6 4 5 6 4 2 5 5 2 1 2 8 7 10 16 24 15 18 11 11
9 9 10 12 12 11 10 9 8 7 7 7 7 5 8 8 10 11 12 10 7 4 4 5 5 2 1 3 5 4 3 4 8 4 1 1 10 7 10 17 12 12 16 17 14
10 9 11 11 11 10 9 9 9 7 8 7 8 4 12 7 7 7 9 9 6 4 5 2 1 2 3 3 2 5 4 4 6 5 2 5 14 11 12 9 2 7 16 22 24
10 11 10 10 11 10 9 6 5 4 11 10 5 7 4 8 7 7 7 8 8 3 2 1 2 6 8 7 6 4 4 6 6 5 3 4 9 16 16 6 9 9 16 21 23
11 10 10 10 10 10 8 5 4 0 7 13 18 18 11 8 6 9 9 6 4 4 1 4 6 11 5 4 4 5 6 7 7 2 2 5 11 6 4 7 7 10 14 16 18
12 11 11 9 8 8 7 7 4 5 3 8 13 17 19 14 9 10 13 6 4 3 5 7 7 3 6 3 3 3 5 4 5 7 1 6 5 6 6 8 8 11 11 12 14
13 12 11 9 6 6 5 5 4 1 3 5 4 5 11 10 5 13 15 7 2 6 4 6 5 5 4 3 4 4 2 1 4 6 3 4 4 4 1 1 3 7 10 9 10
13 13 12 12 6 8 4 5 3 4 2 3 3 7 8 11 5 4 10 6 4 3 2 6 2 2 2 4 4 6 2 3 2 2 4 3 3 5 3 3 3 3 6 9 11
13 13 12 12 11 8 6 5 6 5 6 3 5 5 5 3 1 5 4 4 1 2 2 7 2 2 5 1 1 2 2 5 4 3 2 4 3 4 5 7 3 4 4 7 10
13 14 14 12 12 11 7 7 4 3 2 4 4 4 4 5 3 5 5 4 5 2 2 2 2 1 1 1 2 5 5 4 4 3 4 5 2 7 4 5 9 8 6 6 5
12 15 15 14 10 11 11 3 4 4 5 2 4 4 6 6 5 6 5 2 6 3 1 2 4 5 3 2 3 2 5 4 3 2 4 4 5 4 5 10 10 12 7 4 2
11 14 16 17 15 11 11 2 7 6 3 6 3 3 4 5 5 3 6 5 6 9 7 4 3 1 2 2 2 2 1 3 3 2 1 3 6 6 6 6 7 6 4 5 3
10 11 12 15 17 14 3 5 5 5 2 2 7 5 6 4 4 5 6 3 4 5 3 4 1 1 1 2 2 2 3 2 3 1 4 5 5 4 4 5 1 2 6 5 1
12 6 10 15 16 11 4 7 5 4 2 3 5 2 5 5 6 5 4 1 3 3 3 4 3 2 1 5 6 1 1 3 4 4 4 2 6 5 7 6 5 3 1 5 4
10 1 12 18 6 3 4 6 4 4 2 2 2 2 3 3 5 5 7 3 6 8 6 2 4 3 8 3 3 3 5 5 4 4 2 3 6 5 9 8 9 9 6 3 7
7 5 11 21 4 3 4 5 5 3 4 4 3 5 1 4 2 5 3 1 4 4 7 5 1 2 6 4 1 2 4 3 4 3 6 4 6 4 6 4 5 5 1 6 14
7 3 4 14 5 6 4 5 5 6 5 6 5 3 3 3 2 3 3 1 1 3 6 5 3 6 6 4 3 3 3 4 5 4 4 12 13 14 11 11 8 3 8 12 20
8 5 7 4 6 5 6 4 6 5 6 6 2 6 6 5 2 5 3 2 2 4 2 4 5 5 5 5 4 6 9 7 10 7 10 12 11 10 6 4 2 4 9 17 18
7 5 6 3 5 12 5 5 7 3 7 5 5 7 7 6 8 3 6 4 5 2 5 1 2 3 3 5 5 8 14 9 11 13 14 13 14 2 5 2 4 9 14 15 12
17 7 5 5 5 6 6 9 9 6 6 11 10 5 5 9 11 3 3 7 6 8 6 5 5 3 4 3 6 8 6 6 5 5 6 6 3 2 0 4 8 14 15 11 19
Wind_Direction
197 207 216 224 233 231 215 191 193 197 190 223 267 279 254 211 197 211 220 225 355 354 23 87 65 8 324 138 145 186 59 262 254 223 269 314 343 300 278 260 241 230 250 264 266
204 207 215 228 232 232 208 195 199 200 207 218 254 266 285 279 227 223 187 157 324 337 319 317 332 335 250 262 183 129 131 236 213 235 255 283 240 283 268 262 265 261 256 253 247
203 214 215 225 225 235 203 199 204 206 215 235 253 270 298 315 269 240 209 198 262 318 321 350 330 313 221 240 206 189 206 223 262 270 287 265 284 284 262 278 270 270 280 255 235
208 215 224 226 213 234 202 201 207 210 221 238 260 269 292 305 214 294 196 208 238 305 307 291 299 286 265 257 256 259 246 243 271 279 284 264 287 272 255 271 296 294 285 271 245
214 215 220 221 212 230 199 203 212 216 230 244 258 266 292 279 258 279 200 234 240 310 294 301 314 285 248 269 308 219 263 268 271 284 283 281 269 271 281 298 310 308 288 265 251
213 218 223 214 208 215 199 202 217 220 233 251 261 274 280 264 258 227 240 249 269 290 288 273 271 293 284 258 202 299 294 289 296 289 273 232 278 314 279 313 318 308 304 279 262
213 212 218 202 199 201 204 202 219 224 233 250 263 271 269 253 267 258 264 259 275 283 278 270 267 279 288 295 304 288 308 322 280 319 173 72 310 235 294 300 315 317 311 295 275
203 203 203 189 195 195 209 212 219 232 242 258 273 276 261 260 261 259 265 262 261 288 285 271 272 270 240 298 325 342 46 356 288 327 330 121 272 265 296 315 314 6 23 1 304
199 193 191 194 196 203 209 228 232 243 256 261 265 252 269 262 249 252 250 244 250 265 291 297 278 263 292 71 356 358 269 263 315 291 236 189 286 258 302 313 321 351 33 34 23
201 193 194 197 204 215 223 231 245 248 261 252 238 266 243 238 236 232 227 229 238 254 295 274 169 64 32 75 233 270 301 284 265 283 168 268 271 289 309 307 55 63 49 47 40
202 199 198 205 211 219 230 241 242 239 227 218 231 212 253 214 206 211 211 215 223 224 192 316 59 230 215 205 215 244 250 251 259 283 351 262 281 290 305 139 127 83 55 45 38
201 201 202 210 214 220 229 225 197 227 293 254 251 246 245 216 212 202 190 199 170 214 93 6 247 239 228 224 215 243 263 283 287 290 358 327 296 313 65 128 110 80 60 48 38
200 200 204 206 212 223 230 235 222 308 277 280 242 242 223 227 227 205 200 210 183 207 203 191 241 80 184 242 276 261 228 266 256 316 38 327 337 357 14 92 96 81 93 67 41
199 197 197 199 210 204 203 196 238 247 41 264 215 205 190 192 254 227 219 205 191 217 222 227 272 196 197 241 158 291 184 284 307 22 288 26 276 318 320 95 43 73 89 66 45
201 199 197 189 172 175 152 184 179 150 326 180 165 161 169 177 148 182 185 201 200 221 101 256 226 212 215 229 173 230 9 301 239 95 19 340 82 265 210 221 191 87 98 59 61
206 202 199 199 183 171 169 177 143 55 254 176 149 164 131 212 203 144 175 184 183 208 215 238 270 201 211 131 197 1 47 37 45 72 7 261 128 269 189 201 181 201 99 95 78
208 206 203 201 197 199 188 155 60 165 294 191 181 171 172 174 221 169 160 175 176 123 267 301 212 90 176 123 25 64 51 339 350 4 229 317 17 244 285 183 177 148 145 107 74
212 206 204 201 186 184 173 64 185 234 231 186 134 133 184 155 241 185 127 233 224 162 166 196 316 171 173 174 181 175 136 152 265 260 283 322 247 262 338 106 119 146 151 159 135
207 204 205 202 196 180 179 136 206 208 217 150 75 169 229 211 167 151 199 205 217 177 182 176 273 75 60 43 109 163 173 179 104 30 37 268 301 334 62 78 140 167 210 224 201
190 191 207 201 195 187 123 231 224 223 149 127 185 168 199 218 153 165 191 202 205 176 183 199 294 197 124 75 32 167 155 67 24 255 269 295 284 226 110 115 102 237 284 240 276
172 171 189 184 179 177 184 223 245 266 217 192 200 213 233 184 183 199 209 300 168 142 137 139 128 290 59 202 186 110 163 80 116 149 197 272 271 212 139 173 213 261 99 125 55
176 127 176 171 159 181 182 199 229 216 199 225 144 190 221 178 203 223 207 224 177 152 160 142 135 200 221 284 214 182 187 146 132 239 225 158 271 201 158 163 168 170 145 95 15
177 156 180 179 171 223 259 233 224 192 215 189 216 193 146 220 228 213 176 157 153 132 161 181 71 19 335 2 311 202 182 156 109 83 204 163 257 195 175 88 154 140 197 356 352
177 139 154 199 236 164 180 219 213 215 209 195 213 176 163 226 233 234 174 265 138 112 135 127 144 171 202 195 152 278 257 194 168 172 220 232 267 276 310 327 340 355 341 343 339
200 217 180 199 235 188 165 203 192 213 214 206 226 193 175 213 221 217 148 134 29 139 120 128 198 193 244 251 241 224 247 225 220 224 222 271 256 270 277 270 141 322 336 331 328
186 188 182 194 185 184 194 221 203 202 160 222 184 212 197 187 195 183 153 187 198 133 155 25 225 176 265 265 292 270 262 225 231 241 256 262 271 342 112 95 348 335 330 329 334
211 207 179 196 158 134 206 209 224 171 235 218 205 192 202 231 231 209 185 158 180 158 169 156 143 107 267 340 318 295 245 202 203 205 203 224 211 139 211 296 311 323 328 325 332
Height
1537 1539 1541 1541 1542 1542 1542 1543 1544 1545 1545 1546 1546 1545 1545 1545 1544 1545 1545 1546 1545 1544 1544 1544 1544 1543 1544 1542 1542 1544 1556 1561 1552 1546 1539 1534 1535 1533 1531 1529 1527 1526 1524 1524 1523
1536 1537 1539 1540 1541 1541 1541 1543 1544 1545 1545 1545 1546 1545 1545 1544 1544 1543 1544 1544 1545 1544 1544 1543 1543 1542 1543 1543 1541 1543 1557 1551 1539 1537 1537 1534 1534 1532 1530 1527 1524 1523 1521 1521 1521
1534 1536 1537 1539 1538 1540 1540 1542 1543 1544 1545 1544 1545 1545 1544 1544 1544 1542 1542 1543 1544 1544 1543 1543 1542 1542 1541 1542 1540 1539 1546 1539 1535 1534 1534 1532 1530 1528 1527 1523 1517 1518 1517 1517 1517
1532 1534 1537 1538 1535 1540 1539 1541 1542 1543 1544 1544 1544 1544 1544 1544 1547 1541 1541 1542 1542 1543 1543 1542 1541 1541 1541 1540 1539 1540 1534 1534 1531 1531 1530 1529 1527 1525 1523 1515 1515 1515 1514 1514 1513
1531 1534 1536 1534 1533 1539 1539 1540 1542 1542 1544 1543 1543 1543 1543 1543 1542 1542 1542 1541 1542 1541 1542 1541 1540 1540 1541 1539 1536 1536 1531 1530 1528 1527 1526 1527 1523 1525 1517 1512 1512 1511 1509 1508 1509
1531 1532 1533 1531 1533 1538 1538 1539 1541 1541 1542 1543 1542 1542 1543 1543 1540 1541 1541 1541 1541 1540 1540 1540 1539 1539 1538 1537 1537 1533 1531 1527 1524 1520 1520 1522 1520 1522 1510 1510 1509 1508 1507 1504 1503
1528 1528 1530 1528 1533 1536 1537 1538 1540 1540 1541 1541 1541 1540 1541 1540 1539 1539 1540 1540 1539 1539 1538 1539 1538 1539 1538 1534 1534 1531 1533 1526 1519 1519 1518 1518 1521 1518 1509 1508 1507 1506 1502 1500 1499
1526 1526 1528 1528 1533 1534 1536 1537 1538 1539 1540 1540 1540 1539 1537 1537 1536 1537 1538 1538 1537 1536 1538 1537 1537 1537 1536 1534 1533 1534 1535 1538 1519 1519 1518 1519 1525 1510 1509 1508 1505 1503 1497 1494 1493
1524 1525 1527 1530 1532 1533 1535 1537 1536 1537 1538 1538 1539 1539 1536 1535 1534 1535 1536 1536 1536 1534 1536 1536 1536 1537 1536 1537 1544 1540 1545 1537 1529 1518 1519 1520 1518 1505 1507 1506 1504 1503 1499 1496 1493
1523 1523 1527 1528 1530 1532 1534 1534 1534 1535 1537 1536 1539 1540 1534 1532 1532 1532 1534 1535 1535 1534 1535 1535 1535 1538 1539 1544 1555 1545 1543 1537 1537 1521 1519 1521 1516 1505 1505 1505 1503 1504 1502 1498 1495
1521 1524 1524 1526 1529 1531 1533 1533 1535 1535 1533 1531 1531 1530 1529 1530 1530 1531 1532 1533 1534 1534 1536 1535 1539 1544 1536 1535 1532 1536 1537 1540 1531 1521 1520 1519 1517 1505 1500 1502 1503 1503 1502 1500 1498
1520 1521 1523 1525 1527 1529 1530 1531 1531 1533 1530 1526 1528 1528 1529 1529 1529 1528 1530 1534 1531 1535 1535 1540 1542 1530 1528 1529 1531 1535 1538 1537 1526 1519 1521 1519 1515 1506 1500 1503 1505 1502 1502 1502 1499
1518 1519 1523 1524 1525 1527 1527 1530 1528 1531 1530 1524 1521 1522 1525 1528 1526 1525 1528 1529 1528 1533 1535 1541 1530 1524 1527 1528 1530 1532 1534 1533 1533 1524 1520 1519 1517 1514 1507 1506 1506 1503 1502 1502 1501
1516 1519 1520 1523 1528 1523 1526 1528 1527 1530 1538 1525 1519 1520 1521 1524 1524 1522 1524 1528 1528 1530 1532 1533 1524 1524 1526 1528 1529 1535 1526 1526 1528 1533 1539 1525 1539 1519 1511 1509 1507 1505 1504 1504 1503
1515 1517 1519 1521 1522 1523 1527 1526 1528 1531 1553 1518 1518 1518 1519 1521 1521 1522 1523 1523 1526 1527 1530 1530 1524 1525 1526 1526 1524 1530 1525 1528 1527 1533 1537 1531 1540 1523 1513 1511 1508 1507 1506 1506 1504
1512 1515 1517 1518 1521 1523 1525 1528 1528 1543 1548 1519 1516 1516 1519 1519 1520 1521 1522 1523 1526 1526 1526 1525 1521 1523 1523 1523 1524 1524 1527 1532 1536 1540 1546 1530 1532 1524 1518 1510 1508 1507 1509 1508 1506
1510 1512 1515 1516 1518 1523 1525 1526 1540 1549 1515 1518 1515 1516 1516 1519 1521 1520 1522 1525 1529 1533 1531 1523 1522 1521 1522 1525 1524 1527 1536 1550 1544 1550 1543 1530 1532 1518 1503 1501 1502 1507 1508 1507 1505
1506 1510 1512 1515 1518 1521 1523 1529 1540 1522 1517 1508 1510 1516 1519 1516 1518 1519 1522 1526 1521 1523 1532 1532 1532 1523 1522 1523 1525 1527 1534 1551 1545 1553 1546 1532 1533 1512 1504 1502 1505 1506 1506 1505 1505
1505 1507 1509 1513 1517 1519 1524 1536 1528 1518 1507 1510 1512 1518 1519 1514 1515 1516 1521 1521 1515 1517 1529 1531 1526 1522 1523 1521 1524 1528 1536 1533 1543 1550 1553 1538 1523 1507 1507 1507 1507 1506 1505 1504 1505
1502 1505 1507 1512 1514 1518 1522 1524 1515 1507 1506 1507 1516 1514 1520 1516 1515 1518 1520 1510 1512 1511 1513 1520 1529 1523 1523 1523 1524 1526 1529 1539 1549 1550 1549 1542 1536 1521 1508 1511 1507 1507 1506 1506 1506
1502 1503 1505 1509 1512 1515 1522 1519 1510 1505 1505 1507 1509 1509 1511 1514 1515 1517 1513 1510 1509 1512 1513 1516 1524 1528 1525 1527 1527 1532 1533 1535 1542 1551 1553 1556 1536 1509 1509 1507 1507 1507 1506 1506 1507
1499 1503 1503 1506 1511 1512 1515 1510 1505 1504 1504 1504 1505 1505 1507 1507 1513 1514 1511 1507 1506 1508 1515 1515 1526 1532 1528 1520 1520 1522 1525 1530 1544 1542 1550 1551 1536 1503 1504 1505 1505 1506 1506 1506 1506
1496 1499 1501 1504 1511 1510 1506 1503 1504 1503 1503 1504 1504 1504 1504 1507 1512 1508 1507 1507 1506 1507 1512 1514 1527 1537 1528 1525 1520 1519 1519 1521 1531 1537 1540 1546 1528 1502 1502 1502 1504 1504 1505 1504 1501
1494 1498 1501 1502 1500 1500 1502 1502 1502 1499 1500 1501 1501 1502 1504 1506 1505 1506 1508 1507 1507 1507 1509 1511 1523 1526 1533 1522 1521 1523 1518 1519 1524 1538 1532 1520 1509 1501 1501 1502 1502 1503 1502 1501 1499
1489 1488 1489 1498 1497 1496 1497 1497 1499 1500 1498 1499 1499 1500 1504 1509 1506 1508 1507 1509 1508 1508 1510 1513 1523 1523 1520 1519 1520 1519 1518 1519 1522 1520 1524 1506 1510 1504 1503 1503 1503 1503 1501 1499 1496
1484 1485 1485 1487 1487 1492 1495 1496 1495 1493 1496 1497 1498 1497 1501 1503 1503 1503 1503 1508 1505 1510 1511 1514 1521 1520 1520 1515 1518 1518 1510 1512 1511 1509 1507 1507 1504 1499 1500 1501 1501 1500 1498 1495 1492
1480 1480 1481 1482 1484 1490 1490 1488 1489 1491 1491 1489 1492 1496 1498 1497 1497 1498 1498 1499 1500 1504 1511 1516 1521 1526 1526 1521 1519 1516 1499 1500 1500 1500 1500 1504 1499 1499 1500 1499 1498 1496 1495 1492 1489